Terminal Aerodrome Forecast
Issued by NWS Knoxville/Tri Cities, TN

Home | Current Version | Previous Version | Text Only | Print | Product List | Glossary On
Versions: 1 2 3 4 5 6 7 8 9 10 11 12 13 14 15 16 17 18 19 20 21 22 23 24 25 26 27 28 29 30 31 32 33 34 35 36 37 38 39 40 41 42 43 44 45 46 47 48 49 50
000
FTUS44 KMRX 051204 AAA
TAFTRI
TAF AMD
KTRI 051204Z 0512/0612 VRB04KT P6SM SCT014 OVC022
      TEMPO 0512/0514 4SM -RA BR OVC014
     FM051400 31010KT 3SM -PLSN OVC007
     FM051600 32012KT 4SM -SN OVC014
     FM052100 35008KT P6SM OVC021
     FM060100 VRB04KT P6SM OVC015=

USA.gov is the U.S. government's official web portal to all federal, state and local government web resources and services.